Time,TemperatureF,DewpointF,PressureIn,WindDirection,WindDirectionDegrees,WindSpeedMPH,WindSpeedGustMPH,Humidity,HourlyPrecipIn,Conditions,Clouds,dailyrainin,SoftwareType,DateUTC
2013-03-04 00:02:00,23.0,-99.9,-100.00,SSE,164,0.0,0.0,-999,-99.99,,,-99.99,,2013-03-04 06:02:00,
2013-03-04 00:11:00,23.0,-99.9,-100.00,SSE,164,0.0,0.0,-999,-99.99,,,-99.99,,2013-03-04 06:11:00,
2013-03-04 00:22:00,23.0,-99.9,-100.00,SSE,164,0.0,0.0,-999,-99.99,,,-99.99,,2013-03-04 06:22:00,
2013-03-04 00:32:00,23.0,-99.9,-100.00,SSE,164,0.0,0.0,-999,-99.99,,,-99.99,,2013-03-04 06:32:00,
2013-03-04 00:42:00,23.0,-99.9,-100.00,SSE,164,0.0,0.0,-999,-99.99,,,-99.99,,2013-03-04 06:42:00,
2013-03-04 00:52:00,23.0,-99.9,-100.00,SSE,164,0.0,0.0,-999,-99.99,,,-99.99,,2013-03-04 06:52:00,
2013-03-04 01:02:00,23.0,-99.9,-100.00,SSE,164,0.0,0.0,-999,-99.99,,,-99.99,,2013-03-04 07:02:00,
2013-03-04 01:11:00,23.0,-99.9,-100.00,SSE,164,0.0,0.0,-999,-99.99,,,-99.99,,2013-03-04 07:11:00,
2013-03-04 01:22:00,23.0,-99.9,-100.00,SSE,164,0.0,0.0,-999,-99.99,,,-99.99,,2013-03-04 07:22:00,
2013-03-04 01:32:00,23.0,-99.9,-100.00,SSE,164,0.0,0.0,-999,-99.99,,,-99.99,,2013-03-04 07:32:00,
2013-03-04 01:42:00,23.0,-99.9,-100.00,SSE,164,0.0,0.0,-999,-99.99,,,-99.99,,2013-03-04 07:42:00,
2013-03-04 01:52:00,23.0,-99.9,-100.00,SSE,164,0.0,0.0,-999,-99.99,,,-99.99,,2013-03-04 07:52:00,
2013-03-04 02:02:00,23.0,-99.9,-100.00,SSE,164,0.0,0.0,-999,-99.99,,,-99.99,,2013-03-04 08:02:00,
2013-03-04 02:12:00,24.0,-99.9,-100.00,SSE,164,0.0,0.0,-999,-99.99,,,-99.99,,2013-03-04 08:12:00,
2013-03-04 02:22:00,24.0,-99.9,-100.00,SSE,164,0.0,0.0,-999,-99.99,,,-99.99,,2013-03-04 08:22:00,
2013-03-04 02:32:00,25.0,-99.9,-100.00,SSE,164,0.0,0.0,-999,-99.99,,,-99.99,,2013-03-04 08:32:00,
2013-03-04 02:42:00,25.0,-99.9,-100.00,SSE,164,0.0,0.0,-999,-99.99,,,-99.99,,2013-03-04 08:42:00,
2013-03-04 02:53:00,26.0,-99.9,-100.00,SSE,164,0.0,0.0,-999,-99.99,,,-99.99,,2013-03-04 08:53:00,
2013-03-04 03:02:00,25.0,-99.9,-100.00,SSE,164,0.0,0.0,-999,-99.99,,,-99.99,,2013-03-04 09:02:00,
2013-03-04 03:11:00,25.0,-99.9,-100.00,SSE,164,0.0,0.0,-999,-99.99,,,-99.99,,2013-03-04 09:11:00,
2013-03-04 03:22:00,25.0,-99.9,-100.00,SSE,164,0.0,0.0,-999,-99.99,,,-99.99,,2013-03-04 09:22:00,
2013-03-04 03:32:00,25.0,-99.9,-100.00,SSE,164,0.0,0.0,-999,-99.99,,,-99.99,,2013-03-04 09:32:00,
2013-03-04 03:42:00,25.0,-99.9,-100.00,SSE,164,0.0,0.0,-999,-99.99,,,-99.99,,2013-03-04 09:42:00,
2013-03-04 03:52:00,25.0,-99.9,-100.00,SSE,164,0.0,0.0,-999,-99.99,,,-99.99,,2013-03-04 09:52:00,
2013-03-04 04:02:00,26.0,-99.9,-100.00,SSE,168,0.0,13.0,-999,-99.99,,,-99.99,,2013-03-04 10:02:00,
2013-03-04 04:12:00,26.0,-99.9,-100.00,SSE,168,0.0,13.0,-999,-99.99,,,-99.99,,2013-03-04 10:12:00,
2013-03-04 04:22:00,26.0,-99.9,-100.00,SSE,168,0.0,0.0,-999,-99.99,,,-99.99,,2013-03-04 10:22:00,
2013-03-04 04:32:00,26.0,-99.9,-100.00,SSE,168,0.0,0.0,-999,-99.99,,,-99.99,,2013-03-04 10:32:00,
2013-03-04 04:42:00,26.0,-99.9,-100.00,SSE,168,0.0,0.0,-999,-99.99,,,-99.99,,2013-03-04 10:42:00,
2013-03-04 04:52:00,26.0,-99.9,-100.00,SSE,168,0.0,0.0,-999,-99.99,,,-99.99,,2013-03-04 10:52:00,
2013-03-04 05:02:00,26.0,-99.9,-100.00,SSE,161,0.0,16.0,-999,-99.99,,,-99.99,,2013-03-04 11:02:00,
2013-03-04 05:11:00,26.0,-99.9,-100.00,SSE,161,0.0,16.0,-999,-99.99,,,-99.99,,2013-03-04 11:11:00,
2013-03-04 05:22:00,26.0,-99.9,-100.00,SSE,165,0.0,0.0,-999,-99.99,,,-99.99,,2013-03-04 11:22:00,
2013-03-04 05:32:00,26.0,-99.9,-100.00,SSE,165,0.0,0.0,-999,-99.99,,,-99.99,,2013-03-04 11:32:00,
2013-03-04 05:42:00,26.0,-99.9,-100.00,SSE,165,0.0,0.0,-999,-99.99,,,-99.99,,2013-03-04 11:42:00,
2013-03-04 05:52:00,26.0,-99.9,-100.00,SSE,165,0.0,0.0,-999,-99.99,,,-99.99,,2013-03-04 11:52:00,
2013-03-04 06:02:00,26.0,-99.9,-100.00,SSE,165,0.0,0.0,-999,-99.99,,,-99.99,,2013-03-04 12:02:00,
2013-03-04 06:12:00,26.0,-99.9,-100.00,SSE,165,0.0,0.0,-999,-99.99,,,-99.99,,2013-03-04 12:12:00,
2013-03-04 06:22:00,26.0,-99.9,-100.00,SSE,165,0.0,0.0,-999,-99.99,,,-99.99,,2013-03-04 12:22:00,
2013-03-04 06:32:00,26.0,-99.9,-100.00,South,180,0.0,16.0,-999,-99.99,,,-99.99,,2013-03-04 12:32:00,
2013-03-04 06:43:00,26.0,-99.9,-100.00,South,180,0.0,16.0,-999,-99.99,,,-99.99,,2013-03-04 12:43:00,
2013-03-04 06:53:00,27.0,-99.9,-100.00,South,175,0.0,17.0,-999,-99.99,,,-99.99,,2013-03-04 12:53:00,
2013-03-04 07:02:00,27.0,-99.9,-100.00,SSE,154,0.0,0.0,-999,-99.99,,,-99.99,,2013-03-04 13:02:00,
2013-03-04 07:11:00,27.0,-99.9,-100.00,SSE,154,0.0,0.0,-999,-99.99,,,-99.99,,2013-03-04 13:11:00,
2013-03-04 07:22:00,27.0,-99.9,-100.00,SE,143,0.0,0.0,-999,-99.99,,,-99.99,,2013-03-04 13:22:00,
2013-03-04 07:32:00,27.0,-99.9,-100.00,SSE,164,0.0,19.0,-999,-99.99,,,-99.99,,2013-03-04 13:32:00,
2013-03-04 07:42:00,27.0,-99.9,-100.00,SSE,164,0.0,19.0,-999,-99.99,,,-99.99,,2013-03-04 13:42:00,
2013-03-04 07:52:00,27.0,-99.9,-100.00,SSE,160,0.0,18.0,-999,-99.99,,,-99.99,,2013-03-04 13:52:00,
2013-03-04 08:02:00,27.0,-99.9,-100.00,SE,136,0.0,19.0,-999,-99.99,,,-99.99,,2013-03-04 14:02:00,
2013-03-04 08:12:00,27.0,-99.9,-100.00,SE,136,0.0,19.0,-999,-99.99,,,-99.99,,2013-03-04 14:12:00,
2013-03-04 08:22:00,27.0,-99.9,-100.00,SSE,161,0.0,0.0,-999,-99.99,,,-99.99,,2013-03-04 14:22:00,
2013-03-04 08:32:00,28.0,-99.9,-100.00,SE,140,0.0,0.0,-999,-99.99,,,-99.99,,2013-03-04 14:32:00,
2013-03-04 08:42:00,28.0,-99.9,-100.00,SE,140,0.0,0.0,-999,-99.99,,,-99.99,,2013-03-04 14:42:00,
2013-03-04 08:52:00,28.0,-99.9,-100.00,SE,144,0.0,19.0,-999,-99.99,,,-99.99,,2013-03-04 14:52:00,
2013-03-04 09:02:00,28.0,-99.9,-100.00,SSE,163,0.0,19.0,-999,-99.99,,,-99.99,,2013-03-04 15:02:00,
2013-03-04 09:11:00,28.0,-99.9,-100.00,SSE,163,0.0,19.0,-999,-99.99,,,-99.99,,2013-03-04 15:11:00,
2013-03-04 09:22:00,28.0,-99.9,-100.00,SSE,151,0.0,0.0,-999,-99.99,,,-99.99,,2013-03-04 15:22:00,
2013-03-04 09:32:00,29.0,-99.9,-100.00,SE,132,0.0,19.0,-999,-99.99,,,-99.99,,2013-03-04 15:32:00,
2013-03-04 09:42:00,29.0,-99.9,-100.00,SE,132,0.0,19.0,-999,-99.99,,,-99.99,,2013-03-04 15:42:00,
2013-03-04 09:52:00,29.0,-99.9,-100.00,SE,143,0.0,16.0,-999,-99.99,,,-99.99,,2013-03-04 15:52:00,
2013-03-04 10:03:00,29.0,-99.9,-100.00,South,174,0.0,24.0,-999,-99.99,,,-99.99,,2013-03-04 16:03:00,
2013-03-04 10:11:00,29.0,-99.9,-100.00,South,174,0.0,24.0,-999,-99.99,,,-99.99,,2013-03-04 16:11:00,
2013-03-04 10:22:00,30.0,-99.9,-100.00,NNE,16,3.0,19.0,-999,-99.99,,,-99.99,,2013-03-04 16:22:00,
2013-03-04 10:32:00,30.0,-99.9,-100.00,NNE,14,0.0,7.0,-999,-99.99,,,-99.99,,2013-03-04 16:32:00,
2013-03-04 10:42:00,30.0,-99.9,-100.00,NNE,14,0.0,7.0,-999,-99.99,,,-99.99,,2013-03-04 16:42:00,
2013-03-04 10:52:00,30.0,-99.9,-100.00,NNE,22,0.0,20.0,-999,-99.99,,,-99.99,,2013-03-04 16:52:00,
2013-03-04 11:02:00,31.0,-99.9,-100.00,NNE,22,0.0,18.0,-999,-99.99,,,-99.99,,2013-03-04 17:02:00,
2013-03-04 11:11:00,31.0,-99.9,-100.00,NNE,22,0.0,18.0,-999,-99.99,,,-99.99,,2013-03-04 17:11:00,
2013-03-04 11:22:00,32.0,-99.9,-100.00,North,358,0.0,22.0,-999,-99.99,,,-99.99,,2013-03-04 17:22:00,
2013-03-04 11:32:00,32.0,-99.9,-100.00,SE,133,0.0,26.0,-999,-99.99,,,-99.99,,2013-03-04 17:32:00,
2013-03-04 11:42:00,32.0,-99.9,-100.00,SE,133,0.0,26.0,-999,-99.99,,,-99.99,,2013-03-04 17:42:00,
2013-03-04 11:52:00,32.0,-99.9,-100.00,NNE,32,0.0,19.0,-999,-99.99,,,-99.99,,2013-03-04 17:52:00,
2013-03-04 12:02:00,35.0,-99.9,-100.00,SE,127,14.0,27.0,-999,-99.99,,,-99.99,,2013-03-04 18:02:00,
2013-03-04 12:11:00,35.0,-99.9,-100.00,SE,127,14.0,27.0,-999,-99.99,,,-99.99,,2013-03-04 18:11:00,
2013-03-04 12:22:00,36.0,-99.9,-100.00,ESE,115,15.0,27.0,-999,-99.99,,,-99.99,,2013-03-04 18:22:00,
2013-03-04 12:33:00,35.0,-99.9,-100.00,SSE,150,13.0,25.0,-999,-99.99,,,-99.99,,2013-03-04 18:33:00,
2013-03-04 12:43:00,35.0,-99.9,-100.00,SSE,150,13.0,25.0,-999,-99.99,,,-99.99,,2013-03-04 18:43:00,
2013-03-04 12:52:00,36.0,-99.9,-100.00,SE,140,0.0,19.0,-999,-99.99,,,-99.99,,2013-03-04 18:52:00,
2013-03-04 13:02:00,37.0,-99.9,-100.00,NE,37,0.0,23.0,-999,-99.99,,,-99.99,,2013-03-04 19:02:00,
2013-03-04 13:12:00,37.0,-99.9,-100.00,NE,37,0.0,23.0,-999,-99.99,,,-99.99,,2013-03-04 19:12:00,
2013-03-04 13:22:00,36.0,-99.9,-100.00,NE,37,0.0,25.0,-999,-99.99,,,-99.99,,2013-03-04 19:22:00,
2013-03-04 13:32:00,36.0,-99.9,-100.00,North,358,0.0,17.0,-999,-99.99,,,-99.99,,2013-03-04 19:32:00,
2013-03-04 13:42:00,36.0,-99.9,-100.00,North,358,0.0,17.0,-999,-99.99,,,-99.99,,2013-03-04 19:42:00,
2013-03-04 13:52:00,35.0,-99.9,-100.00,SSE,153,27.0,27.0,-999,-99.99,,,-99.99,,2013-03-04 19:52:00,
2013-03-04 14:02:00,34.0,-99.9,-100.00,North,358,0.0,28.0,-999,-99.99,,,-99.99,,2013-03-04 20:02:00,
2013-03-04 14:12:00,35.0,-99.9,-100.00,North,358,0.0,0.0,-999,-99.99,,,-99.99,,2013-03-04 20:12:00,
2013-03-04 14:22:00,35.0,-99.9,-100.00,North,358,0.0,0.0,-999,-99.99,,,-99.99,,2013-03-04 20:22:00,
2013-03-04 14:33:00,35.0,-99.9,-100.00,North,358,0.0,17.0,-999,-99.99,,,-99.99,,2013-03-04 20:33:00,
2013-03-04 14:42:00,35.0,-99.9,-100.00,North,358,0.0,17.0,-999,-99.99,,,-99.99,,2013-03-04 20:42:00,
2013-03-04 14:53:00,35.0,-99.9,-100.00,North,358,0.0,3.0,-999,-99.99,,,-99.99,,2013-03-04 20:53:00,
2013-03-04 15:02:00,35.0,-99.9,-100.00,North,358,0.0,0.0,-999,-99.99,,,-99.99,,2013-03-04 21:02:00,
2013-03-04 15:12:00,35.0,-99.9,-100.00,North,358,0.0,0.0,-999,-99.99,,,-99.99,,2013-03-04 21:12:00,
2013-03-04 15:22:00,35.0,-99.9,-100.00,SSE,164,0.0,0.0,-999,-99.99,,,-99.99,,2013-03-04 21:22:00,
2013-03-04 15:33:00,34.0,-99.9,-100.00,SE,132,15.0,0.0,-999,-99.99,,,-99.99,,2013-03-04 21:33:00,
2013-03-04 15:43:00,34.0,-99.9,-100.00,SE,132,15.0,0.0,-999,-99.99,,,-99.99,,2013-03-04 21:43:00,
2013-03-04 15:53:00,34.0,-99.9,-100.00,NNE,26,0.0,0.0,-999,-99.99,,,-99.99,,2013-03-04 21:53:00,
2013-03-04 16:02:00,34.0,-99.9,-100.00,SE,143,0.0,0.0,-999,-99.99,,,-99.99,,2013-03-04 22:02:00,
2013-03-04 16:12:00,34.0,-99.9,-100.00,SE,143,0.0,0.0,-999,-99.99,,,-99.99,,2013-03-04 22:12:00,
2013-03-04 16:22:00,34.0,-99.9,-100.00,North,358,0.0,19.0,-999,-99.99,,,-99.99,,2013-03-04 22:22:00,
2013-03-04 16:32:00,34.0,-99.9,-100.00,North,358,0.0,0.0,-999,-99.99,,,-99.99,,2013-03-04 22:32:00,
2013-03-04 16:43:00,34.0,-99.9,-100.00,North,358,0.0,0.0,-999,-99.99,,,-99.99,,2013-03-04 22:43:00,
2013-03-04 16:52:00,33.0,-99.9,-100.00,ESE,119,0.0,20.0,-999,-99.99,,,-99.99,,2013-03-04 22:52:00,
2013-03-04 17:02:00,33.0,-99.9,-100.00,ESE,119,0.0,0.0,-999,-99.99,,,-99.99,,2013-03-04 23:02:00,
2013-03-04 17:12:00,33.0,-99.9,-100.00,ESE,119,0.0,0.0,-999,-99.99,,,-99.99,,2013-03-04 23:12:00,
2013-03-04 17:22:00,32.0,-99.9,-100.00,North,358,0.0,0.0,-999,-99.99,,,-99.99,,2013-03-04 23:22:00,
2013-03-04 17:32:00,32.0,-99.9,-100.00,ESE,118,0.0,18.0,-999,-99.99,,,-99.99,,2013-03-04 23:32:00,
2013-03-04 17:42:00,32.0,-99.9,-100.00,ESE,118,0.0,18.0,-999,-99.99,,,-99.99,,2013-03-04 23:42:00,
2013-03-04 17:53:00,32.0,-99.9,-100.00,SE,137,0.0,14.0,-999,-99.99,,,-99.99,,2013-03-04 23:53:00,
2013-03-04 18:02:00,32.0,-99.9,-100.00,SE,137,0.0,0.0,-999,-99.99,,,-99.99,,2013-03-05 00:02:00,
2013-03-04 18:12:00,32.0,-99.9,-100.00,SE,137,0.0,0.0,-999,-99.99,,,-99.99,,2013-03-05 00:12:00,
2013-03-04 18:22:00,31.0,-99.9,-100.00,SE,139,0.0,0.0,-999,-99.99,,,-99.99,,2013-03-05 00:22:00,
2013-03-04 18:33:00,31.0,-99.9,-100.00,NNE,16,0.0,20.0,-999,-99.99,,,-99.99,,2013-03-05 00:33:00,
2013-03-04 18:42:00,31.0,-99.9,-100.00,NNE,16,0.0,20.0,-999,-99.99,,,-99.99,,2013-03-05 00:42:00,
2013-03-04 18:52:00,31.0,-99.9,-100.00,SE,139,0.0,0.0,-999,-99.99,,,-99.99,,2013-03-05 00:52:00,
2013-03-04 19:02:00,31.0,-99.9,-100.00,North,358,0.0,0.0,-999,-99.99,,,-99.99,,2013-03-05 01:02:00,
2013-03-04 19:12:00,31.0,-99.9,-100.00,North,358,0.0,0.0,-999,-99.99,,,-99.99,,2013-03-05 01:12:00,
2013-03-04 19:22:00,31.0,-99.9,-100.00,North,358,0.0,0.0,-999,-99.99,,,-99.99,,2013-03-05 01:22:00,
2013-03-04 19:33:00,30.0,-99.9,-100.00,North,358,0.0,0.0,-999,-99.99,,,-99.99,,2013-03-05 01:33:00,
2013-03-04 19:42:00,30.0,-99.9,-100.00,North,358,0.0,0.0,-999,-99.99,,,-99.99,,2013-03-05 01:42:00,
2013-03-04 19:52:00,31.0,-99.9,-100.00,North,358,0.0,0.0,-999,-99.99,,,-99.99,,2013-03-05 01:52:00,
2013-03-04 20:02:00,32.0,-99.9,-100.00,North,358,0.0,0.0,-999,-99.99,,,-99.99,,2013-03-05 02:02:00,
2013-03-04 20:12:00,32.0,-99.9,-100.00,North,358,0.0,0.0,-999,-99.99,,,-99.99,,2013-03-05 02:12:00,
2013-03-04 20:22:00,32.0,-99.9,-100.00,North,358,0.0,0.0,-999,-99.99,,,-99.99,,2013-03-05 02:22:00,
2013-03-04 20:33:00,32.0,-99.9,-100.00,SE,127,0.0,0.0,-999,-99.99,,,-99.99,,2013-03-05 02:33:00,
2013-03-04 20:42:00,32.0,-99.9,-100.00,SE,127,0.0,0.0,-999,-99.99,,,-99.99,,2013-03-05 02:42:00,
2013-03-04 20:53:00,32.0,-99.9,-100.00,SE,127,0.0,0.0,-999,-99.99,,,-99.99,,2013-03-05 02:53:00,
2013-03-04 21:02:00,32.0,-99.9,-100.00,SE,127,0.0,0.0,-999,-99.99,,,-99.99,,2013-03-05 03:02:00,
2013-03-04 21:12:00,32.0,-99.9,-100.00,SE,127,0.0,0.0,-999,-99.99,,,-99.99,,2013-03-05 03:12:00,
2013-03-04 21:22:00,32.0,-99.9,-100.00,SE,127,0.0,0.0,-999,-99.99,,,-99.99,,2013-03-05 03:22:00,
2013-03-04 21:32:00,32.0,-99.9,-100.00,SE,127,0.0,0.0,-999,-99.99,,,-99.99,,2013-03-05 03:32:00,
2013-03-04 21:42:00,32.0,-99.9,-100.00,SE,127,0.0,0.0,-999,-99.99,,,-99.99,,2013-03-05 03:42:00,
2013-03-04 21:52:00,32.0,-99.9,-100.00,SE,127,0.0,0.0,-999,-99.99,,,-99.99,,2013-03-05 03:52:00,
2013-03-04 22:02:00,32.0,-99.9,-100.00,SE,127,0.0,0.0,-999,-99.99,,,-99.99,,2013-03-05 04:02:00,
2013-03-04 22:12:00,32.0,-99.9,-100.00,SE,127,0.0,0.0,-999,-99.99,,,-99.99,,2013-03-05 04:12:00,
2013-03-04 22:22:00,32.0,-99.9,-100.00,SE,127,0.0,0.0,-999,-99.99,,,-99.99,,2013-03-05 04:22:00,
2013-03-04 22:32:00,32.0,-99.9,-100.00,SE,127,0.0,0.0,-999,-99.99,,,-99.99,,2013-03-05 04:32:00,
2013-03-04 22:42:00,32.0,-99.9,-100.00,SE,127,0.0,0.0,-999,-99.99,,,-99.99,,2013-03-05 04:42:00,
2013-03-04 22:52:00,32.0,-99.9,-100.00,SE,127,0.0,0.0,-999,-99.99,,,-99.99,,2013-03-05 04:52:00,
2013-03-04 23:02:00,32.0,-99.9,-100.00,SE,127,0.0,0.0,-999,-99.99,,,-99.99,,2013-03-05 05:02:00,
2013-03-04 23:12:00,32.0,-99.9,-100.00,SE,127,0.0,0.0,-999,-99.99,,,-99.99,,2013-03-05 05:12:00,
2013-03-04 23:23:00,32.0,-99.9,-100.00,North,358,0.0,0.0,-999,-99.99,,,-99.99,,2013-03-05 05:23:00,
2013-03-04 23:32:00,32.0,-99.9,-100.00,North,358,0.0,0.0,-999,-99.99,,,-99.99,,2013-03-05 05:32:00,
2013-03-04 23:42:00,32.0,-99.9,-100.00,North,358,0.0,0.0,-999,-99.99,,,-99.99,,2013-03-05 05:42:00,
2013-03-04 23:52:00,31.0,-99.9,-100.00,North,358,0.0,0.0,-999,-99.99,,,-99.99,,2013-03-05 05:52:00,